Starlink 6377

operational
NORAD ID: 57341 Int'l Des: 2023-099 Owner: SPXS Country: US Constellation: starlink
LEOCIRCULAR

Starlink 6377について

説明を読み込み中...

リアルタイム位置

3D地球を読み込み中...

次回通過

高度履歴

Altitude vs Time

uPlot chart will show altitude changes over time

軌道要素

1 57341U 23099P 25351.23573378 .00000126 00000-0 24371-4 0 9997
2 57341 43.0037 336.9777 0001063 266.7126 93.3595 15.02540857133717
Epoch: Dec 17, 2025 • Age: 25 hours

現在のステータス

高度 564.3 km
速度 7.58 km/s
衛星直下点 -23.41°S, 6.44°W
打ち上げ日 Jul 16, 2023
運用期間 2.4 years
タイプ internet

技術仕様

分類 Payload
質量 305.00 kg
乾燥質量 290.00 kg
総質量 305.00 kg
長さ 0.20 m
直径 2.80 m
スパン 9.00 m
形状 Box + pan
製造者 SPXS
バスタイプ Starlink
フェーズステータス In Orbit
所有者/国 SPXS/US

大規模コンステレーション

Loading constellations...